Regional Weather Roundup
Issued by NWS

Home | Current Version | Previous Version | Text Only | Print | Product List | Glossary On
Versions: 1 2 3 4 5 6 7 8 9 10 11 12 13 14 15 16 17 18 19 20 21 22 23 24 25 26 27 28 29 30 31 32 33 34 35 36 37 38 39 40 41 42 43 44 45 46 47 48 49 50
393
ASUS44 KOUN 121710
RWROK

WEATHER ROUNDUP FOR OKLAHOMA
NATIONAL WEATHER SERVICE NORMAN OK
1100 AM CST FRI FEB 12 2016

NOTE: "FAIR" INDICATES FEW OR NO CLOUDS BELOW 12,000 FEET WITH NO
      SIGNIFICANT WEATHER AND/OR OBSTRUCTIONS TO VISIBILITY.

OKZ001>007-009>012-014-015-017-121800-
NORTHWEST OKLAHOMA AND THE PANHANDLE

CITY           SKY/WX    TMP DP  RH WIND       PRES   REMARKS
GAGE           SUNNY     54  33  45 NE10      30.37R
GUYMON         SUNNY     51  31  46 E7        30.37S
$$

OKZ016-021>023-033>039-044-045-121800-
SOUTHWEST OKLAHOMA

CITY           SKY/WX    TMP DP  RH WIND       PRES   REMARKS
LAWTON/REGL    SUNNY     57  36  45 NE10      30.34R
LAWTON/FT SILL SUNNY     57  36  45 NE9       30.33R HAZE
FREDERICK      SUNNY     59  38  45 VRB5      30.30S
CLINTON        SUNNY     54  35  48 NE21      30.36R
HOBART         SUNNY     56  37  49 E18       30.35R
ALTUS AFB      SUNNY     55  34  45 NE15      30.34R
$$

OKZ018>020-024>031-121800-
CENTRAL OKLAHOMA

CITY           SKY/WX    TMP DP  RH WIND       PRES   REMARKS
OKLAHOMA CITY  MOSUNNY   52  33  48 N13       30.35R
OKC/WILEY POST SUNNY     50  34  54 N14       30.36R
OKC/TINKER AFB SUNNY     53  32  45 N9        30.33
STILLWATER       N/A     49  32  52 NE15      30.37R
GUTHRIE        SUNNY     49  33  54 NE12G20   30.37R
$$

OKZ008-013-054>072-121800-
NORTHEAST OKLAHOMA

CITY           SKY/WX    TMP DP  RH WIND       PRES   REMARKS
TULSA          PTSUNNY   46  31  55 N18G24    30.37R
TULSA/JONES    SUNNY     47  30  51 NE13G21   30.38R
PONCA CITY     SUNNY     45  30  55 NE16      30.39R
BARTLESVILLE   SUNNY     42  27  55 N13G20    30.41R
MUSKOGEE       SUNNY     50  31  48 N13       30.35S
$$

OKZ032-040>043-046>053-073>077-121800-
SOUTH CENTRAL/SOUTHEAST OKLAHOMA

CITY           SKY/WX    TMP DP  RH WIND       PRES   REMARKS
ARDMORE/DWNTWN SUNNY     55  32  41 NE3       30.32R
MCALESTER      MOSUNNY   55  31  39 NE9       30.33R
$$





USA.gov is the U.S. government's official web portal to all federal, state and local government web resources and services.